Torna al catalogo

RASSVET-3 23

AttivoPO
NORAD 100089·PAYLOAD·🇷🇺 Russia

Lanciato Jul 19, 2026 da Plesetsk Cosmodrome

Loading…

Prossimi Passaggi (prossime 24 ore)

TLE

AggiornatoSource: Space-Track

Epoca: Sep 14, 2026, 13:07 UTC

1 A0089U 26165G   26257.54707374  .00125554  49653-5  27024-3 0  9998
2 A0089  82.2979 166.4752 0019355 197.2609 162.8012 15.98036253  9027

Traccia RASSVET-3 23 in tempo reale con AllMySat

Download on the App Store